Regional Weather Roundup
Issued by NWS

Home | Current Version | Previous Version | Text Only | Print | Product List | Glossary Off
Versions: 1 2 3 4 5 6 7 8 9 10 11 12 13 14 15 16 17 18 19 20 21 22 23 24 25 26 27 28 29 30 31 32 33 34 35 36 37 38 39 40 41 42 43 44 45 46 47 48 49 50

000
ASUS43 KDMX 201607
RWRIA

WEATHER ROUNDUP FOR IOWA
NATIONAL WEATHER SERVICE DES MOINES IA
1000 AM CST SAT DEC 20 2014

NOTE: "FAIR" INDICATES FEW OR NO CLOUDS BELOW 12,000 FEET WITH NO
SIGNIFICANT WEATHER AND/OR OBSTRUCTIONS TO VISIBILITY.

* - THESE STATIONS ARE NOT NWS STATIONS...THUS NOT UNDER NWS
QUALITY CONTROL.  THEY ALSO DO NOT REPORT WEATHER SUCH
AS PRECIPITATION OR FOG.

IAZ001>003-012>014-020>022-031>034-043>046-201700-
   NORTHWEST IOWA

CITY           SKY/WX    TMP DP  RH WIND       PRES   REMARKS
CARROLL *      CLOUDY    30  32 100 S8        30.14R FOG     WCI  23
CHEROKEE *     CLOUDY    30  30 100 SE7       30.12S FOG     WCI  23
DENISON *      CLOUDY    32  32 100 S9        30.11S FOG     WCI  24
LE MARS *      CLOUDY    32  30  93 S10       30.11S WCI  24
ORANGE CITY *  CLOUDY    32  30  93 S7        30.10R FOG     WCI  26
SHELDON *      CLOUDY    30  30 100 S9        30.09R FOG     WCI  22
SIOUX CITY     CLOUDY    33  30  88 S6        30.13R FOG     WCI  28
SPENCER        CLOUDY    30  28  92 S9        30.12R FOG     WCI  22
STORM LAKE *   FOG       30  30 100 S9        30.12S VSB 1   WCI  22
$$

IAZ055>058-069>071-079>083-090>094-201700-
   SOUTHWEST IOWA

CITY           SKY/WX    TMP DP  RH WIND       PRES   REMARKS
ATLANTIC *     CLOUDY    32  32 100 S8        30.14R FOG     WCI  25
AUDUBON *      CLOUDY    30  27  86 S6        30.14S FOG     WCI  24
CLARINDA *     MIX PCPN  32  32 100 SE6       30.17R WCI  26
COUNCIL BLFS * CLOUDY    32  32 100 S8        30.11S FOG     WCI  25
CRESTON *      CLOUDY    32  32 100 S8        30.15R FOG     WCI  25
HARLAN  *        N/A     32  32 100 S7        30.17R FOG     WCI  26
LAMONI         CLOUDY    32  31  96 S5        30.17R FOG     WCI  27
RED OAK *      CLOUDY    32  32 100 S5        30.15R FOG     WCI  27
SHENANDOAH *   MIX PCPN  34  34 100 SE7       30.15R WCI  28
$$

IAZ047>049-059>061-072>074-084-201700-
   CENTRAL IOWA

CITY           SKY/WX    TMP DP  RH WIND       PRES   REMARKS
AMES           CLOUDY    31  28  89 SE3       30.17S
ANKENY *       CLOUDY    32  30  93 SE5       30.18S FOG     WCI  27
CHARITON *     CLOUDY    32  32 100 S6        30.17S FOG     WCI  26
DES MOINES     CLOUDY    33  29  85 SE6       30.18S FOG     WCI  28
GRINNELL*      FOG       32  30  93 SE8       30.19S VSB 1   WCI  25
KNOXVILLE *    CLOUDY    32  32 100 S5        30.18R FOG     WCI  27
MARSHALLTOWN   CLOUDY    31  30  96 S5        30.17S FOG     WCI  26
PELLA *        FOG       32  32 100 S6        30.20S VSB 3/4 WCI  26
PERRY *        CLOUDY    32  32 100 S7        30.16S FOG     WCI  26
$$

IAZ004>006-015-016-023>025-035-036-201700-
   NORTH CENTRAL IOWA

CITY           SKY/WX    TMP DP  RH WIND       PRES   REMARKS
ALGONA *       CLOUDY    30  28  93 S10       30.14S WCI  21
CLARION *      CLOUDY    30  30 100 SW7       30.16R WCI  23
ESTHERVILLE    CLOUDY    28  27  96 S10       30.12R WCI  19
FORT DODGE *   CLOUDY    30  25  80 SE5       30.16S WCI  25
FOREST CITY *  CLOUDY    32  30  93 S7        30.15R FOG     WCI  26
IOWA FALLS *   CLOUDY    30  30 100 S6        30.17S FOG     WCI  24
$$

IAZ007>011-017>019-026>030-037>042-050>054-066-201700-
   NORTHEAST IOWA

CITY           SKY/WX    TMP DP  RH WIND       PRES   REMARKS
CEDAR RAPIDS   CLOUDY    30  29  96 SE7       30.21S FOG     WCI  23
CHARLES CITY * FOG       30  30 100 SE9       30.18S VSB 1   WCI  22
CLINTON *      CLOUDY    30  25  80 SE7       30.29R WCI  23
DECORAH *      CLOUDY    28  27  93 SE8       30.18S FOG     WCI  20
DUBUQUE        CLOUDY    28  25  88 SE7       30.23R FOG     WCI  21
MONTICELLO *   CLOUDY    30  28  93 SE8       30.22F FOG     WCI  23
OELWEIN *      CLOUDY    30  28  93 S8        30.20S FOG     WCI  23
WATERLOO       FOG       30  30 100 S8        30.19S VSB 1   WCI  22
$$

IAZ064-065-067-068-078-201700-
   EAST CENTRAL IOWA

CITY           SKY/WX    TMP DP  RH WIND       PRES   REMARKS
DAVENPORT      CLOUDY    31  24  75 SE8       30.26R WCI  23
IOWA CITY      CLOUDY    31  28  89 SE7       30.25S FOG     WCI  24
MT. PLEASANT * CLOUDY    32  28  86 S7        30.24R FOG     WCI  26
MUSCATINE *    CLOUDY    32  28  86 SE6       30.26S HAZE    WCI  26
QUAD CITIES    CLOUDY    32  25  75 SE6       30.26R HAZE    WCI  26
$$

IAZ062-063-075>077-085>089-095>099-201700-
   SOUTHEAST IOWA

CITY           SKY/WX    TMP DP  RH WIND       PRES   REMARKS
BURLINGTON     CLOUDY    33  28  81 S7        30.24R HAZE    WCI  27
FAIRFIELD *    MIX PCPN  32  30  93 S6        30.22S WCI  26
FORT MADISON * CLOUDY    34  30  86 S8        30.25R FOG     WCI  27
KEOKUK *       CLOUDY    34  30  86 S5        30.24R FOG     WCI  30
OSKALOOSA *    FOG       32  32 100 SE6       30.21S VSB 3/4 WCI  26
CENTERVILLE *  FOG       32  32 100 S5        30.20S VSB 1/4 WCI  27
OTTUMWA        CLOUDY    32  30  92 S7        30.20S FOG     WCI  26
WASHINGTON *   CLOUDY    32  32 100 S6        30.23R FOG     WCI  26
$$

ABBREVIATIONS USED IN REMARKS
   TC - TEMPERATURES IN CELSIUS
  WCI - WIND CHILL INDEX
   HX - HEAT INDEX
  VSB - VISIBILITY
$$



USA.gov is the U.S. government's official web portal to all federal, state and local government web resources and services.